| time (UTC) | temp F | wind direction | speed MPH | gust MPH | rain 1hr in | rain 24hr in | rain mn in | humidity % | barometer mb |
| 20260502163014 | 60 | 124 | 0.0 | 0.0 | 0.00 | 0.00 | 0.00 | 3 | 1012.7 |
| 20260502161509 | 60 | 124 | 0.0 | 1.0 | 0.00 | 0.00 | 0.00 | 3 | 1012.6 |
| 20260502151517 | 58 | 114 | 0.0 | 0.0 | 0.00 | 0.00 | 0.00 | 3 | 1012.1 |
| 20260502123052 | 57 | 43 | 0.0 | 0.0 | 0.00 | 0.00 | 0.00 | 3 | 1011.4 |
| 20260502121551 | 57 | 42 | 0.0 | 0.0 | 0.00 | 0.00 | 0.00 | 3 | 1011.3 |
| 20260502114519 | 56 | 160 | 0.0 | 0.0 | 0.00 | 0.00 | 0.00 | 3 | 1011.4 |
| 20260502113057 | 56 | 208 | 0.0 | 0.0 | 0.00 | 0.00 | 0.00 | 3 | 1011.3 |
| 20260502111604 | 56 | 155 | 0.0 | 0.0 | 0.00 | 0.00 | 0.00 | 3 | 1011.2 |
| 20260502110037 | 56 | 124 | 0.0 | 0.0 | 0.00 | 0.00 | 0.00 | 3 | 1011.3 |
| 20260502104532 | 56 | 190 | 0.0 | 0.0 | 0.00 | 0.00 | 0.00 | 3 | 1011.4 |
| 20260502103027 | 56 | 195 | 0.0 | 0.0 | 0.00 | 0.00 | 0.00 | 3 | 1011.4 |
| 20260502101524 | 56 | 72 | 0.0 | 0.0 | 0.00 | 0.00 | 0.00 | 3 | 1011.4 |
| 20260502091507 | 56 | 141 | 0.0 | 0.0 | 0.00 | 0.00 | 0.00 | 3 | 1011.9 |
| 20260502071528 | 55 | 108 | 0.0 | 0.0 | 0.00 | 0.00 | 0.00 | 3 | 1012.1 |
| 20260502070003 | 55 | 208 | 0.0 | 3.0 | 0.00 | 0.00 | 0.00 | 3 | 1012.1 |
| 20260502064601 | 55 | 222 | 0.0 | 1.0 | 0.00 | 0.00 | 0.00 | 3 | 1012.0 |
| 20260502063037 | 55 | 173 | 0.0 | 0.0 | 0.00 | 0.00 | 0.00 | 3 | 1012.1 |
| 20260502061530 | 55 | 217 | 0.0 | 0.0 | 0.00 | 0.00 | 0.00 | 3 | 1012.1 |
| 20260502060008 | 56 | 203 | 0.0 | 0.0 | 0.00 | 0.00 | 0.00 | 3 | 1012.1 |
| 20260502054503 | 56 | 224 | 0.0 | 0.0 | 0.00 | 0.00 | 0.00 | 3 | 1012.2 |
| 20260502053100 | 56 | 223 | 0.0 | 0.0 | 0.00 | 0.00 | 0.00 | 3 | 1012.2 |
| 20260502051538 | 57 | 208 | 0.0 | 0.0 | 0.00 | 0.00 | 0.00 | 3 | 1012.3 |
| 20260502050034 | 57 | 204 | 0.0 | 0.0 | 0.00 | 0.00 | 0.00 | 3 | 1012.3 |
| 20260502044511 | 58 | 127 | 0.0 | 0.0 | 0.00 | 0.00 | 0.00 | 3 | 1012.3 |
| 20260502043008 | 58 | 214 | 0.0 | 1.0 | 0.00 | 0.00 | 0.00 | 3 | 1012.2 |
| 20260502041546 | 59 | 217 | 0.0 | 0.0 | 0.00 | 0.00 | 0.00 | 3 | 1012.2 |
| 20260502040042 | 59 | 239 | 0.0 | 1.0 | 0.00 | 0.00 | 0.00 | 3 | 1011.9 |
| 20260502040011 | 59 | 226 | 0.0 | 1.0 | 0.00 | 0.00 | 0.00 | 3 | 1011.8 |
| 20260502034519 | 60 | 187 | 0.0 | 3.0 | 0.00 | 0.00 | 0.00 | 3 | 1011.7 |
| 20260502033014 | 60 | 219 | 0.0 | 2.0 | 0.00 | 0.00 | 0.00 | 3 | 1011.5 |
| 20260502031553 | 61 | 211 | 0.0 | 0.0 | 0.00 | 0.00 | 0.00 | 3 | 1011.3 |
| 20260502030054 | 61 | 221 | 0.0 | 0.0 | 0.00 | 0.00 | 0.00 | 8 | 1011.3 |
| 20260502024528 | 61 | 214 | 0.0 | 3.0 | 0.00 | 0.00 | 0.00 | 20 | 1011.2 |
| 20260502023024 | 62 | 198 | 0.0 | 9.0 | 0.00 | 0.00 | 0.00 | 37 | 1011.1 |
| 20260502021508 | 63 | 204 | 0.0 | 6.0 | 0.00 | 0.00 | 0.00 | 46 | 1011.1 |
| 20260502020058 | 63 | 224 | 0.0 | 5.0 | 0.00 | 0.00 | 0.00 | 53 | 1011.1 |
| 20260502014535 | 64 | 173 | 0.0 | 3.0 | 0.00 | 0.00 | 0.00 | 53 | 1011.2 |
| 20260502013033 | 64 | 217 | 0.0 | 5.0 | 0.00 | 0.00 | 0.00 | 60 | 1011.4 |
| 20260502011509 | 65 | 232 | 0.0 | 5.0 | 0.00 | 0.00 | 0.00 | 63 | 1011.4 |
| 20260502010009 | 66 | 238 | 0.0 | 4.0 | 0.00 | 0.00 | 0.00 | 63 | 1011.4 |
| 20260502004602 | 66 | 193 | 1.0 | 8.0 | 0.00 | 0.00 | 0.00 | 62 | 1011.6 |
| 20260502003038 | 66 | 203 | 1.0 | 7.0 | 0.00 | 0.00 | 0.00 | 63 | 1011.5 |
| 20260502001517 | 67 | 203 | 1.0 | 6.0 | 0.00 | 0.00 | 0.00 | 63 | 1011.4 |
| 20260502000011 | 67 | 188 | 0.0 | 4.0 | 0.00 | 0.00 | 0.00 | 63 | 1011.4 |
| 20260501234549 | 68 | 188 | 0.0 | 6.0 | 0.00 | 0.00 | 0.00 | 63 | 1011.5 |
| 20260501233045 | 69 | 181 | 0.0 | 7.0 | 0.00 | 0.00 | 0.00 | 62 | 1011.6 |
| 20260501231535 | 68 | 165 | 0.0 | 5.0 | 0.00 | 0.00 | 0.00 | 62 | 1011.7 |
| 20260501230020 | 70 | 214 | 0.0 | 3.0 | 0.00 | 0.00 | 0.00 | 61 | 1011.8 |
| 20260501224558 | 71 | 276 | 0.0 | 2.0 | 0.00 | 0.00 | 0.00 | 61 | 1012.0 |
| 20260501223103 | 72 | 231 | 0.0 | 4.0 | 0.00 | 0.00 | 0.00 | 61 | 1012.2 |
| 20260501221533 | 74 | 230 | 0.0 | 6.0 | 0.00 | 0.00 | 0.00 | 60 | 1012.3 |
| 20260501220026 | 74 | 147 | 0.0 | 1.0 | 0.00 | 0.00 | 0.00 | 60 | 1012.3 |
| 20260501214504 | 75 | 201 | 0.0 | 2.0 | 0.00 | 0.00 | 0.00 | 59 | 1012.5 |
| 20260501213113 | 75 | 141 | 0.0 | 2.0 | 0.00 | 0.00 | 0.00 | 58 | 1012.7 |
| 20260501211544 | 75 | 233 | 0.0 | 0.0 | 0.00 | 0.00 | 0.00 | 60 | 1012.7 |
| 20260501210040 | 74 | 195 | 0.0 | 0.0 | 0.00 | 0.00 | 0.00 | 58 | 1012.8 |
| 20260501204535 | 73 | 205 | 0.0 | 1.0 | 0.00 | 0.00 | 0.00 | 58 | 1012.9 |
| 20260501203034 | 72 | 214 | 0.0 | 1.0 | 0.00 | 0.00 | 0.00 | 59 | 1013.1 |
| 20260501201531 | 72 | 99 | 0.0 | 4.0 | 0.00 | 0.00 | 0.00 | 58 | 1013.3 |
| 20260501200026 | 71 | 235 | 0.0 | 1.0 | 0.00 | 0.00 | 0.00 | 59 | 1013.3 |
| 20260501194523 | 71 | 239 | 0.0 | 0.0 | 0.00 | 0.00 | 0.00 | 59 | 1013.5 |
| 20260501193024 | 70 | 146 | 0.0 | 2.0 | 0.00 | 0.00 | 0.00 | 59 | 1013.7 |
| 20260501191553 | 69 | 194 | 0.0 | 0.0 | 0.00 | 0.00 | 0.00 | 59 | 1013.9 |
| 20260501190047 | 68 | 215 | 0.0 | 2.0 | 0.00 | 0.00 | 0.00 | 58 | 1014.0 |
| 20260501184525 | 67 | 152 | 0.0 | 0.0 | 0.00 | 0.00 | 0.00 | 56 | 1014.2 |
| 20260501183021 | 66 | 176 | 0.0 | 0.0 | 0.00 | 0.00 | 0.00 | 56 | 1014.4 |
| 20260501181559 | 65 | 129 | 0.0 | 0.0 | 0.00 | 0.00 | 0.00 | 52 | 1014.5 |
| 20260501180057 | 65 | 215 | 0.0 | 0.0 | 0.00 | 0.00 | 0.00 | 44 | 1014.5 |
| 20260501174538 | 66 | 208 | 0.0 | 0.0 | 0.00 | 0.00 | 0.00 | 3 | 1014.5 |
| 20260501173029 | 62 | 110 | 0.0 | 0.0 | 0.00 | 0.00 | 0.00 | 3 | 1014.5 |
| 20260501171506 | 58 | 88 | 0.0 | 0.0 | 0.00 | 0.00 | 0.00 | 3 | 1014.7 |
| 20260501170001 | 57 | 134 | 0.0 | 0.0 | 0.00 | 0.00 | 0.00 | 3 | 1014.6 |
| 20260501164607 | 56 | 242 | 0.0 | 0.0 | 0.00 | 0.00 | 0.00 | 3 | 1014.6 |